467  
ASUS44 KSHV 312310  
RWRSHV  
 
THE FOUR STATE AREA WEATHER ROUNDUP  
NATIONAL WEATHER SERVICE SHREVEPORT LA  
600 PM CDT SUN MAY 31 2020  
 
NOTE: "FAIR" INDICATES FEW OR NO CLOUDS BELOW 12000 FEET  
WITH NO SIGNIFICANT WEATHER AND/OR S TO VISIBILITY
.  
 
!LAZ001-LAZ014-TXZ097-010000  
SHREVEPORT...MONROE...TEXARKANA RADIOS  
 
CITY SKY/WX TMP DP RH WIND PRES REMARKS
 
SHREVEPORT PTSUNNY 85 56 37 N8 30.09S  
MONROE MOSUNNY 86 56 35 N10 30.09F  
NATCHITOCHES PTSUNNY 88 59 36 E7 30.07F  
TEXARKANA MOSUNNY 83 59 44 NE8 30.11F  

 
 
!LAZ001-LAZ014-TXZ097-010000  
OTHER LOCATIONS...  
 
CITY SKY/WX TMP DP RH WIND PRES REMARKS
 
DOWNTOWN SHV PTSUNNY 84 55 36 NE7 30.09S  
BOSSIER CITY PTSUNNY 82 N/A N/A NE3 30.09S  
RUSTON MOSUNNY 83 55 38 N9 30.13F  
LITTLE ROCK MOSUNNY 80 54 40 NE9 30.14F  
EL DORADO PTSUNNY 83 58 42 E6 30.12F  
JACKSON MOSUNNY 84 58 40 N10 30.08F  
NEW ORLEANS CLOUDY 87 67 51 N6 30.03F  
HOUSTON CLOUDY 77 74 90 SW3 30.06S  
LUFKIN CLOUDY 83 66 56 N3 30.07F  
TYLER CLOUDY 84 57 39 E6 30.09S  
DAL FT WORTH PTSUNNY 84 60 44 S8 30.08S  

 
 
!TXZ136-TXZ165-010000  
TYLER...LUFKIN RADIOS  
 
CITY SKY/WX TMP DP RH WIND PRES REMARKS
 
TYLER CLOUDY 84 57 39 E6 30.09S  
GILMER MOCLDY 83 57 39 E5 30.11S  
LONGVIEW PTSUNNY 83 59 44 E6 30.09S  
LUFKIN CLOUDY 83 66 56 N3 30.07F  

 
 
!TXZ136-TXZ165-010000  
OTHER LOCATIONS...  
 
CITY SKY/WX TMP DP RH WIND PRES REMARKS
 
NACOGDOCHES CLOUDY 82 65 56 CALM 30.09F  
BEAUMONT CLOUDY 81 67 62 E6 30.04F  
HOUSTON CLOUDY 77 74 90 SW3 30.06S  
COLLEGE STN CLOUDY 82 67 60 E6 30.06F  
AUSTIN CLOUDY 81 69 67 E8 30.06F  
DAL FT WORTH PTSUNNY 84 60 44 S8 30.08S  
TEXARKANA MOSUNNY 83 59 44 NE8 30.11F  
SHREVEPORT PTSUNNY 85 56 37 N8 30.09S  
FORT POLK CLOUDY 82 62 50 NE5 30.05F  
LAKE CHARLES CLOUDY 81 68 64 E3 30.05S  

 
 
 
CLICK HERE TO GO TO PREVIOUS BULLETINS.

The Nexlab LA Page
The Nexlab TX Page
The Nexlab AR Page
The Nexlab OK Page Main Text Page